Time,TemperatureF,DewpointF,PressureIn,WindDirection,WindDirectionDegrees,WindSpeedMPH,WindSpeedGustMPH,Humidity,HourlyPrecipIn,Conditions,Clouds,dailyrainin,SoftwareType,DateUTC
2013-05-06 00:01:00,55.7,54.0,29.94,ESE,111,6.0,6.0,94,0.00,,,0.04,weatherlink.com 1.10,2013-05-06 05:01:00,
2013-05-06 00:16:00,55.6,54.0,29.94,South,183,1.0,4.0,95,0.00,,,0.04,weatherlink.com 1.10,2013-05-06 05:16:00,
2013-05-06 00:31:00,55.4,54.0,29.94,SSW,195,3.0,5.0,95,0.00,,,0.04,weatherlink.com 1.10,2013-05-06 05:31:00,
2013-05-06 00:46:00,55.1,54.0,29.94,South,173,3.0,8.0,95,0.00,,,0.04,weatherlink.com 1.10,2013-05-06 05:46:00,
2013-05-06 01:01:00,54.9,53.0,29.95,WSW,240,1.0,6.0,94,0.00,,,0.00,weatherlink.com 1.10,2013-05-06 06:01:00,
2013-05-06 01:16:00,54.8,53.0,29.94,WSW,245,2.0,12.0,93,0.00,,,0.00,weatherlink.com 1.10,2013-05-06 06:16:00,
2013-05-06 01:31:00,54.6,53.0,29.93,SSE,165,2.0,10.0,93,0.00,,,0.00,weatherlink.com 1.10,2013-05-06 06:31:00,
2013-05-06 01:46:00,54.4,52.0,29.93,ESE,104,1.0,4.0,92,0.00,,,0.00,weatherlink.com 1.10,2013-05-06 06:46:00,
2013-05-06 02:01:00,54.2,52.0,29.92,SE,125,1.0,6.0,93,0.00,,,0.00,weatherlink.com 1.10,2013-05-06 07:01:00,
2013-05-06 02:17:00,54.4,53.0,29.92,ESE,112,3.0,6.0,94,0.00,,,0.00,weatherlink.com 1.10,2013-05-06 07:17:00,
2013-05-06 02:32:00,54.1,53.0,29.92,SE,130,5.0,8.0,94,0.00,,,0.00,weatherlink.com 1.10,2013-05-06 07:32:00,
2013-05-06 02:47:00,53.7,52.0,29.92,ENE,65,4.0,6.0,93,0.00,,,0.00,weatherlink.com 1.10,2013-05-06 07:47:00,
2013-05-06 03:02:00,53.7,52.0,29.93,ESE,105,5.0,10.0,93,0.00,,,0.00,weatherlink.com 1.10,2013-05-06 08:02:00,
2013-05-06 03:17:00,53.6,52.0,29.93,WSW,243,4.0,10.0,93,0.00,,,0.00,weatherlink.com 1.10,2013-05-06 08:17:00,
2013-05-06 03:32:00,53.5,52.0,29.94,SE,133,4.0,10.0,93,0.00,,,0.00,weatherlink.com 1.10,2013-05-06 08:32:00,
2013-05-06 03:47:00,53.2,51.0,29.93,East,86,6.0,7.0,93,0.00,,,0.00,weatherlink.com 1.10,2013-05-06 08:47:00,
2013-05-06 04:02:00,-999.0,-99.9,29.92,North,-999,-999.0,-999.0,-999,0.00,,,0.00,weatherlink.com 1.10,2013-05-06 09:02:00,
2013-05-06 04:17:00,-999.0,-99.9,29.93,North,-999,-999.0,-999.0,-999,0.00,,,0.00,weatherlink.com 1.10,2013-05-06 09:17:00,
2013-05-06 04:32:00,-999.0,-99.9,29.93,North,-999,-999.0,-999.0,-999,0.00,,,0.00,weatherlink.com 1.10,2013-05-06 09:32:00,
2013-05-06 04:47:00,-999.0,-99.9,29.93,North,-999,-999.0,-999.0,-999,0.00,,,0.00,weatherlink.com 1.10,2013-05-06 09:47:00,
2013-05-06 05:02:00,-999.0,-99.9,29.93,North,-999,-999.0,-999.0,-999,0.00,,,0.00,weatherlink.com 1.10,2013-05-06 10:02:00,
2013-05-06 05:17:00,-999.0,-99.9,29.93,North,-999,-999.0,-999.0,-999,0.00,,,0.00,weatherlink.com 1.10,2013-05-06 10:17:00,
2013-05-06 05:32:00,-999.0,-99.9,29.94,North,-999,-999.0,-999.0,-999,0.00,,,0.00,weatherlink.com 1.10,2013-05-06 10:32:00,
2013-05-06 05:47:00,-999.0,-99.9,29.94,North,-999,-999.0,-999.0,-999,0.00,,,0.00,weatherlink.com 1.10,2013-05-06 10:47:00,
2013-05-06 06:02:00,-999.0,-99.9,29.94,North,-999,-999.0,-999.0,-999,0.00,,,0.00,weatherlink.com 1.10,2013-05-06 11:02:00,
2013-05-06 06:17:00,-999.0,-99.9,29.95,North,-999,-999.0,-999.0,-999,0.00,,,0.00,weatherlink.com 1.10,2013-05-06 11:17:00,
2013-05-06 06:33:00,52.4,51.0,29.96,ENE,70,6.0,8.0,94,0.00,,,0.00,weatherlink.com 1.10,2013-05-06 11:33:00,
2013-05-06 06:48:00,52.6,51.0,29.96,ENE,78,3.0,7.0,94,0.00,,,0.00,weatherlink.com 1.10,2013-05-06 11:48:00,
2013-05-06 07:03:00,53.0,51.0,29.97,East,87,4.0,7.0,94,0.00,,,0.00,weatherlink.com 1.10,2013-05-06 12:03:00,
2013-05-06 07:18:00,53.3,51.0,29.97,East,81,2.0,9.0,93,0.00,,,0.00,weatherlink.com 1.10,2013-05-06 12:18:00,
2013-05-06 07:33:00,53.8,52.0,29.97,ENE,67,8.0,12.0,92,0.00,,,0.00,weatherlink.com 1.10,2013-05-06 12:33:00,
2013-05-06 07:48:00,54.2,52.0,29.97,ENE,77,8.0,10.0,91,0.00,,,0.00,weatherlink.com 1.10,2013-05-06 12:48:00,
2013-05-06 08:03:00,54.7,52.0,29.98,ENE,58,2.0,8.0,90,0.00,,,0.00,weatherlink.com 1.10,2013-05-06 13:03:00,
2013-05-06 08:18:00,55.3,53.0,29.98,NNE,19,2.0,6.0,90,0.00,,,0.00,weatherlink.com 1.10,2013-05-06 13:18:00,
2013-05-06 08:33:00,55.7,53.0,29.99,NNE,25,3.0,6.0,89,0.00,,,0.00,weatherlink.com 1.10,2013-05-06 13:33:00,
2013-05-06 08:48:00,56.5,53.0,29.98,NE,56,5.0,9.0,89,0.00,,,0.00,weatherlink.com 1.10,2013-05-06 13:48:00,
2013-05-06 09:03:00,58.2,53.0,29.99,NE,48,5.0,10.0,82,0.00,,,0.00,weatherlink.com 1.10,2013-05-06 14:03:00,
2013-05-06 09:18:00,59.2,53.0,29.99,ENE,58,4.0,12.0,79,0.00,,,0.00,weatherlink.com 1.10,2013-05-06 14:18:00,
2013-05-06 09:33:00,59.3,53.0,29.98,NE,46,4.0,9.0,79,0.00,,,0.00,weatherlink.com 1.10,2013-05-06 14:33:00,
2013-05-06 09:48:00,59.4,54.0,29.98,NNW,348,4.0,10.0,82,0.00,,,0.00,weatherlink.com 1.10,2013-05-06 14:48:00,
2013-05-06 10:03:00,59.5,54.0,29.98,NE,53,7.0,11.0,82,0.00,,,0.00,weatherlink.com 1.10,2013-05-06 15:03:00,
2013-05-06 10:18:00,60.4,55.0,29.97,North,354,4.0,8.0,81,0.00,,,0.00,weatherlink.com 1.10,2013-05-06 15:18:00,
2013-05-06 10:33:00,62.5,54.0,29.98,South,173,1.0,16.0,74,0.00,,,0.00,weatherlink.com 1.10,2013-05-06 15:33:00,
2013-05-06 10:48:00,64.7,53.0,29.97,ENE,70,3.0,22.0,65,0.00,,,0.00,weatherlink.com 1.10,2013-05-06 15:48:00,
2013-05-06 11:03:00,64.8,53.0,29.97,East,91,8.0,19.0,65,0.00,,,0.00,weatherlink.com 1.10,2013-05-06 16:03:00,
2013-05-06 11:18:00,65.3,52.0,29.97,SE,127,8.0,25.0,63,0.00,,,0.00,weatherlink.com 1.10,2013-05-06 16:18:00,
2013-05-06 11:33:00,65.0,51.0,29.97,ESE,108,12.0,16.0,61,0.00,,,0.00,weatherlink.com 1.10,2013-05-06 16:33:00,
2013-05-06 11:48:00,66.2,53.0,29.97,East,91,4.0,17.0,63,0.00,,,0.00,weatherlink.com 1.10,2013-05-06 16:48:00,
2013-05-06 12:03:00,66.6,55.0,29.97,East,79,10.0,20.0,66,0.00,,,0.00,weatherlink.com 1.10,2013-05-06 17:03:00,
2013-05-06 12:18:00,67.8,55.0,29.96,East,94,11.0,17.0,63,0.00,,,0.00,weatherlink.com 1.10,2013-05-06 17:18:00,
2013-05-06 12:33:00,67.2,56.0,29.96,East,89,3.0,15.0,68,0.00,,,0.00,weatherlink.com 1.10,2013-05-06 17:33:00,
2013-05-06 12:48:00,68.6,54.0,29.96,ESE,122,9.0,16.0,59,0.00,,,0.00,weatherlink.com 1.10,2013-05-06 17:48:00,
2013-05-06 13:03:00,68.2,55.0,29.96,SE,138,5.0,13.0,62,0.00,,,0.00,weatherlink.com 1.10,2013-05-06 18:03:00,
2013-05-06 13:18:00,67.3,54.0,29.96,West,280,2.0,10.0,63,0.00,,,0.00,weatherlink.com 1.10,2013-05-06 18:18:00,
2013-05-06 13:34:00,67.0,55.0,29.96,ESE,113,5.0,11.0,65,0.00,,,0.00,weatherlink.com 1.10,2013-05-06 18:34:00,
2013-05-06 13:48:00,68.5,55.0,29.95,NE,56,2.0,10.0,62,0.00,,,0.00,weatherlink.com 1.10,2013-05-06 18:48:00,
2013-05-06 14:04:00,68.6,55.0,29.95,SE,131,0.0,10.0,63,0.00,,,0.00,weatherlink.com 1.10,2013-05-06 19:04:00,
2013-05-06 14:19:00,70.0,52.0,29.95,SSW,204,4.0,13.0,54,0.00,,,0.00,weatherlink.com 1.10,2013-05-06 19:19:00,
2013-05-06 14:34:00,70.7,53.0,29.95,SSE,153,6.0,13.0,53,0.00,,,0.00,weatherlink.com 1.10,2013-05-06 19:34:00,
2013-05-06 14:49:00,71.2,51.0,29.94,East,88,9.0,14.0,49,0.00,,,0.00,weatherlink.com 1.10,2013-05-06 19:49:00,
2013-05-06 15:04:00,71.0,55.0,29.94,SE,132,2.0,14.0,58,0.00,,,0.00,weatherlink.com 1.10,2013-05-06 20:04:00,
2013-05-06 15:19:00,70.3,54.0,29.94,WNW,290,1.0,12.0,57,0.00,,,0.00,weatherlink.com 1.10,2013-05-06 20:19:00,
2013-05-06 15:34:00,69.8,54.0,29.93,ENE,78,7.0,12.0,57,0.00,,,0.00,weatherlink.com 1.10,2013-05-06 20:34:00,
2013-05-06 15:49:00,69.7,53.0,29.93,ENE,73,6.0,10.0,56,0.00,,,0.00,weatherlink.com 1.10,2013-05-06 20:49:00,
2013-05-06 16:04:00,70.7,54.0,29.93,ENE,62,4.0,10.0,55,0.00,,,0.00,weatherlink.com 1.10,2013-05-06 21:04:00,
2013-05-06 16:19:00,70.2,53.0,29.93,SSE,158,3.0,12.0,54,0.00,,,0.00,weatherlink.com 1.10,2013-05-06 21:19:00,
2013-05-06 16:34:00,69.5,53.0,29.93,SSW,197,1.0,7.0,57,0.00,,,0.00,weatherlink.com 1.10,2013-05-06 21:34:00,
2013-05-06 17:04:00,68.6,53.0,29.93,East,93,2.0,4.0,58,0.00,,,0.00,weatherlink.com 1.10,2013-05-06 22:04:00,
2013-05-06 17:19:00,68.4,53.0,29.93,SE,127,2.0,4.0,58,0.00,,,0.00,weatherlink.com 1.10,2013-05-06 22:19:00,
2013-05-06 17:34:00,68.4,53.0,29.93,ENE,57,1.0,5.0,59,0.00,,,0.00,weatherlink.com 1.10,2013-05-06 22:34:00,
2013-05-06 17:49:00,67.9,52.0,29.93,SE,127,3.0,4.0,57,0.00,,,0.00,weatherlink.com 1.10,2013-05-06 22:49:00,
2013-05-06 18:04:00,67.7,51.0,29.93,SSE,150,3.0,5.0,55,0.00,,,0.00,weatherlink.com 1.10,2013-05-06 23:04:00,
2013-05-06 18:19:00,67.5,51.0,29.93,East,96,1.0,6.0,56,0.00,,,0.00,weatherlink.com 1.10,2013-05-06 23:19:00,
2013-05-06 18:34:00,67.3,51.0,29.93,SE,141,1.0,4.0,56,0.00,,,0.00,weatherlink.com 1.10,2013-05-06 23:34:00,
2013-05-06 18:49:00,67.2,51.0,29.93,East,84,2.0,4.0,57,0.00,,,0.00,weatherlink.com 1.10,2013-05-06 23:49:00,
2013-05-06 19:04:00,67.0,51.0,29.93,East,97,2.0,4.0,57,0.00,,,0.00,weatherlink.com 1.10,2013-05-07 00:04:00,
2013-05-06 19:19:00,66.5,52.0,29.93,SE,131,0.0,3.0,59,0.00,,,0.00,weatherlink.com 1.10,2013-05-07 00:19:00,
2013-05-06 19:34:00,66.3,51.0,29.93,ESE,110,1.0,2.0,58,0.00,,,0.00,weatherlink.com 1.10,2013-05-07 00:34:00,
2013-05-06 19:49:00,66.7,50.0,29.94,ESE,105,2.0,4.0,56,0.00,,,0.00,weatherlink.com 1.10,2013-05-07 00:49:00,
2013-05-06 20:04:00,66.9,50.0,29.94,East,101,3.0,4.0,55,0.00,,,0.00,weatherlink.com 1.10,2013-05-07 01:04:00,
2013-05-06 20:19:00,67.1,49.0,29.95,East,81,4.0,4.0,53,0.00,,,0.00,weatherlink.com 1.10,2013-05-07 01:19:00,
2013-05-06 20:34:00,67.3,48.0,29.95,East,98,3.0,4.0,51,0.00,,,0.00,weatherlink.com 1.10,2013-05-07 01:34:00,
2013-05-06 20:49:00,67.3,48.0,29.95,East,96,3.0,3.0,51,0.00,,,0.00,weatherlink.com 1.10,2013-05-07 01:49:00,
2013-05-06 21:04:00,67.1,48.0,29.95,SE,127,1.0,3.0,50,0.00,,,0.00,weatherlink.com 1.10,2013-05-07 02:04:00,
2013-05-06 21:19:00,66.7,48.0,29.96,ESE,122,1.0,3.0,51,0.00,,,0.00,weatherlink.com 1.10,2013-05-07 02:19:00,
2013-05-06 21:34:00,66.1,48.0,29.96,ESE,116,1.0,1.0,52,0.00,,,0.00,weatherlink.com 1.10,2013-05-07 02:34:00,
2013-05-06 21:49:00,65.6,48.0,29.97,North,11,1.0,2.0,54,0.00,,,0.00,weatherlink.com 1.10,2013-05-07 02:49:00,
2013-05-06 22:04:00,66.5,47.0,29.97,East,93,2.0,2.0,50,0.00,,,0.00,weatherlink.com 1.10,2013-05-07 03:04:00,
2013-05-06 22:19:00,66.4,48.0,29.97,East,96,1.0,3.0,51,0.00,,,0.00,weatherlink.com 1.10,2013-05-07 03:19:00,
2013-05-06 22:34:00,66.2,47.0,29.96,NNE,28,2.0,2.0,51,0.00,,,0.00,weatherlink.com 1.10,2013-05-07 03:34:00,
2013-05-06 22:49:00,65.9,48.0,29.96,NE,43,2.0,5.0,52,0.00,,,0.00,weatherlink.com 1.10,2013-05-07 03:49:00,
2013-05-06 23:04:00,66.1,47.0,29.96,ENE,75,2.0,4.0,51,0.00,,,0.00,weatherlink.com 1.10,2013-05-07 04:04:00,
2013-05-06 23:19:00,65.9,47.0,29.96,ENE,58,2.0,4.0,51,0.00,,,0.00,weatherlink.com 1.10,2013-05-07 04:19:00,
2013-05-06 23:34:00,66.2,47.0,29.96,ENE,77,3.0,3.0,50,0.00,,,0.00,weatherlink.com 1.10,2013-05-07 04:34:00,
2013-05-06 23:49:00,66.2,46.0,29.96,ENE,63,3.0,3.0,49,0.00,,,0.00,weatherlink.com 1.10,2013-05-07 04:49:00,